Showing default

WILDFIRE 9, 57765

Orbit data source: Space-Track

WILDFIRE 9, 57765 is a payload satellite owned by SDA (US) in LEO that was launched on Sat, 02 Sep 2023 UTC via an FALCON 9 launch vehicle from the Air Force Western Test Range (AFWTR). Payload-class satellites include a variety of spacecraft equipped with specific instruments for various scientific and technological missions. These include communications satellites like Starlink; space stations such as the ISS; scientific satellites like the Hubble; Earth observation satellites from companies like Planet Labs, Umbra, and HawkEye 360; GPS; miniature CubeSats for education and research; and military/defense satellites.

Loading next visibility...
Identifier
57765, 2023-133J
Orbit
LEO
Country
Flag of USUS
Related business
Manufacturer
TYVAK/LMSSD
Mission
Operational Defense Communications
Bus & Motor
MAVERICKS, Unknown motor
Mass
~300 kg wet, ~300 kg dry
Launch date (UTC)
2023-09-02 (2 years ago)
Launch vehicle
FALCON 9
Launch site
Air Force Western Test Range (AFWTR)
Object type
Payload
Rocket body
Debris
Shape & HBR
Box + 2 Pan, 1.3 m
Radar Cross Section
0.713 m², Large (>1 m²)

Expand to show TLE details & history
Last TLE update: 9 hours ago

TLE from 9 hours ago
0 WILDFIRE 9
1 57765U 23133J   25347.01779867  .00000122  00000-0  97638-4 0  9990
2 57765  81.0025 186.6011 0006180 152.5405 207.6079 13.85366300115247
Epoch: 2025-12-13T00:25Z
TLE epoch observation values (Epoch: 2025-12-13T00:25:37.805Z)
Latitude
-0°
Longitude
98.24248°
Altitude
951.784 km
Speed
7.374 km/s
True Right ascension
12h 26m 24s
True Declination
0° 00' 00"
Sunlit
Object was in daylight at epoch
Visualization orbit readout
Latitude
Unknown
Longitude
Unknown
Altitude
Unknown
Speed
Unknown
Apparent Right ascension
Unknown
Apparent Declination
Unknown
Sunlit
N/A
Visualization observer readout
Local Sidereal Time
07:32:39
Azimuth
Unknown
Elevation
Unknown
Doppler factor
Unknown
Orbital elements
Apogee altitude
946.657 km
Perigee altitude
937.61 km
Semi-major axis
7,320.27 km
Eccentricity
0.00062
Inclination
81.0025°
RAAN
186.6011°
Arg. of periapsis
152.5405°
True anomaly
207.5751°
Mean anomaly
207.6079°
Eccentric anomaly
207.5915°
Mean motion
3.46539 °/min
Orbital period
103.88 mins
BSTAR
0.000097638
Loading maneuver chart data...
Computing Atmospheric mass density...
Loading historical data...
Loading historical data...
Loading historical data...
Loading historical data...
Loading historical data...
Loading historical data...
Loading historical data...

Documentation

Showing up to 5 results
|